DLH504 EDDM-SBSP

Flight info

Callsign DLH504
Flight time N/A
Altitude 35000
Route ALG2E ALG Y109 UMTEX Y100 TRA Z69 OLBEN N869 NINTU DCT PIMAK DCT TITVA DCT GAI DCT PERDU DCT KONKE Z245 CJN N10 SVL N857 KORNO UN857 ERMED/N0490F370 UN857 TERTO N857 DEREV/N0492F360 N857 BIPET/N0490F380 N857 GUNET UN857 ERETU/N0485F400 UN857 KOVGO UZ45 IBDAL
Aircraft A359/H-SDE2E3GHIJ3J4J5LM1ORWXY/LB1D1

Departure

Time 2026-05-06 09:54
Airport Munich Airport (EDDM)

Arrival

Time N/A
Airport Congonhas–Deputado Freitas Nobre Airport (SBSP)
Time Latitude Longitude Altitude Speed Heading
2026-05-06 09:22 48.35596 11.79295 1492 ft 0 kts 263°
2026-05-06 09:44 48.35597 11.79303 1491 ft 3 kts 263°
2026-05-06 09:44 48.35599 11.79331 1476 ft 3 kts 263°
2026-05-06 09:44 48.35600 11.79346 1484 ft 0 kts 263°
2026-05-06 09:45 48.35601 11.79362 1476 ft 3 kts 272°
2026-05-06 09:45 48.35598 11.79389 1476 ft 3 kts 299°
2026-05-06 09:45 48.35587 11.79412 1476 ft 3 kts 323°
2026-05-06 09:45 48.35572 11.79428 1476 ft 3 kts 348°
2026-05-06 09:46 48.35567 11.79430 1476 ft 0 kts 355°
2026-05-06 09:48 48.35582 11.79428 1476 ft 5 kts 355°
2026-05-06 09:48 48.35643 11.79421 1481 ft 13 kts 354°
2026-05-06 09:48 48.35741 11.79403 1484 ft 14 kts 353°
2026-05-06 09:48 48.35840 11.79386 1479 ft 14 kts 353°
2026-05-06 09:49 48.35933 11.79348 1479 ft 14 kts 347°
2026-05-06 09:49 48.36026 11.79329 1484 ft 13 kts 352°
2026-05-06 09:49 48.36087 11.79292 1482 ft 7 kts 295°
2026-05-06 09:49 48.36083 11.79206 1484 ft 10 kts 263°
2026-05-06 09:50 48.36074 11.79069 1486 ft 16 kts 264°
2026-05-06 09:50 48.36057 11.78843 1488 ft 27 kts 263°
2026-05-06 09:50 48.36033 11.78560 1478 ft 27 kts 263°
2026-05-06 09:50 48.36012 11.78293 1491 ft 26 kts 263°
2026-05-06 09:51 48.35992 11.78031 1480 ft 25 kts 263°
2026-05-06 09:51 48.35973 11.77777 1484 ft 24 kts 263°
2026-05-06 09:51 48.35954 11.77529 1488 ft 23 kts 264°
2026-05-06 09:51 48.35937 11.77288 1478 ft 23 kts 264°
2026-05-06 09:52 48.35919 11.77060 1478 ft 21 kts 263°
2026-05-06 09:52 48.35931 11.76882 1483 ft 16 kts 307°
2026-05-06 09:52 48.36028 11.76818 1483 ft 15 kts 352°
2026-05-06 09:52 48.36134 11.76802 1490 ft 15 kts 353°
2026-05-06 09:53 48.36238 11.76805 1491 ft 15 kts 13°
2026-05-06 09:53 48.36290 11.76926 1478 ft 20 kts 82°
2026-05-06 09:53 48.36325 11.77387 1481 ft 76 kts 83°
2026-05-06 09:53 48.36411 11.78494 1478 ft 136 kts 83°
2026-05-06 09:54 48.36539 11.80172 1501 ft 186 kts 83°
2026-05-06 09:54 48.36715 11.82104 2167 ft 183 kts 82°
2026-05-06 09:54 48.36877 11.83986 2916 ft 182 kts 83°
2026-05-06 09:54 48.37011 11.85948 3138 ft 195 kts 85°
2026-05-06 09:55 48.37133 11.88035 3351 ft 207 kts 85°
2026-05-06 09:55 48.37290 11.90236 3504 ft 224 kts 84°
2026-05-06 09:55 48.37472 11.92639 3776 ft 236 kts 84°
2026-05-06 09:55 48.37663 11.95114 4230 ft 240 kts 84°
2026-05-06 09:56 48.37720 11.97642 4724 ft 242 kts 99°
2026-05-06 09:56 48.37100 11.99968 5199 ft 242 kts 129°
2026-05-06 09:56 48.35876 12.01643 5703 ft 242 kts 144°
2026-05-06 09:56 48.34360 12.02823 6219 ft 244 kts 165°
2026-05-06 09:57 48.32648 12.03098 6511 ft 255 kts 181°
2026-05-06 09:57 48.30844 12.02985 6843 ft 264 kts 183°
2026-05-06 09:57 48.29620 12.02880 7150 ft 266 kts 183°
2026-05-06 09:57 48.27764 12.02734 7696 ft 267 kts 184°
2026-05-06 09:58 48.25906 12.02603 8262 ft 268 kts 184°
2026-05-06 09:58 48.24034 12.02481 8819 ft 269 kts 184°
2026-05-06 09:58 48.21546 12.02327 9576 ft 270 kts 184°
2026-05-06 09:58 48.20273 12.02250 9937 ft 271 kts 184°
2026-05-06 09:59 48.18385 12.02138 10434 ft 273 kts 184°
2026-05-06 09:59 48.16485 12.02026 10930 ft 274 kts 184°
2026-05-06 09:59 48.14573 12.01913 11444 ft 275 kts 184°
2026-05-06 09:59 48.12678 12.01802 11953 ft 277 kts 184°
2026-05-06 10:00 48.10749 12.01656 12443 ft 277 kts 187°
2026-05-06 10:00 48.08883 12.00948 12888 ft 278 kts 205°
2026-05-06 10:00 48.06901 11.98461 13485 ft 286 kts 233°
2026-05-06 10:00 48.06303 11.96695 13768 ft 291 kts 247°
2026-05-06 10:01 48.05742 11.93767 14200 ft 295 kts 252°
2026-05-06 10:01 48.05263 11.90779 14635 ft 297 kts 252°
2026-05-06 10:01 48.04780 11.87765 15096 ft 298 kts 252°
2026-05-06 10:01 48.04287 11.84749 15541 ft 300 kts 252°
2026-05-06 10:02 48.03785 11.81724 16051 ft 297 kts 251°
2026-05-06 10:02 48.03294 11.78783 16615 ft 296 kts 251°
2026-05-06 10:02 48.02789 11.75794 17013 ft 298 kts 251°
2026-05-06 10:02 48.02278 11.72778 17434 ft 301 kts 251°
2026-05-06 10:03 48.01762 11.69741 17862 ft 302 kts 251°
2026-05-06 10:03 48.01294 11.66659 18244 ft 307 kts 256°
2026-05-06 10:03 48.01065 11.63474 18622 ft 310 kts 260°
2026-05-06 10:03 48.00916 11.60255 19006 ft 311 kts 260°
2026-05-06 10:04 48.00774 11.57025 19373 ft 312 kts 260°
2026-05-06 10:04 48.00628 11.53780 19731 ft 314 kts 260°
2026-05-06 10:04 48.00477 11.50503 20006 ft 320 kts 261°
2026-05-06 10:04 48.00321 11.47170 20284 ft 323 kts 261°
2026-05-06 10:05 48.00164 11.43812 20666 ft 324 kts 261°
2026-05-06 10:05 48.00005 11.40452 21048 ft 325 kts 260°
2026-05-06 10:05 47.99844 11.37078 21396 ft 326 kts 260°
2026-05-06 10:05 47.99681 11.33701 21757 ft 328 kts 260°
2026-05-06 10:06 47.99519 11.30344 22090 ft 329 kts 260°
2026-05-06 10:06 47.99352 11.26926 22465 ft 330 kts 260°
2026-05-06 10:06 47.99183 11.23501 22791 ft 332 kts 260°
2026-05-06 10:06 47.99013 11.20057 23140 ft 333 kts 260°
2026-05-06 10:07 47.98841 11.16599 23479 ft 335 kts 260°
2026-05-06 10:07 47.98668 11.13127 23766 ft 336 kts 260°
2026-05-06 10:07 47.98494 11.09656 24064 ft 336 kts 260°
2026-05-06 10:07 47.98318 11.06156 24310 ft 340 kts 260°
2026-05-06 10:08 47.98262 11.02593 24493 ft 347 kts 265°
2026-05-06 10:08 47.98324 10.98950 24626 ft 354 kts 266°
2026-05-06 10:08 47.98409 10.95243 24751 ft 361 kts 266°
2026-05-06 10:08 47.98495 10.91468 24886 ft 367 kts 266°
2026-05-06 10:09 47.98580 10.87632 25023 ft 373 kts 266°
2026-05-06 10:09 47.98665 10.83731 25161 ft 379 kts 266°
2026-05-06 10:09 47.98747 10.79825 25300 ft 385 kts 266°
2026-05-06 10:09 47.98831 10.75807 25438 ft 390 kts 266°
2026-05-06 10:10 47.98913 10.71725 25573 ft 396 kts 266°
2026-05-06 10:10 47.98996 10.67578 25704 ft 402 kts 266°
2026-05-06 10:10 47.99078 10.63384 25875 ft 407 kts 266°
2026-05-06 10:10 47.99160 10.59119 26027 ft 413 kts 266°
2026-05-06 10:11 47.99241 10.54798 26139 ft 419 kts 266°
2026-05-06 10:11 47.99321 10.50430 26275 ft 424 kts 266°
2026-05-06 10:11 47.99401 10.46001 26406 ft 430 kts 266°
2026-05-06 10:11 47.99480 10.41517 26546 ft 435 kts 266°
2026-05-06 10:12 47.99558 10.36976 26677 ft 440 kts 266°
2026-05-06 10:12 47.99625 10.32380 26811 ft 444 kts 265°
2026-05-06 10:12 47.99467 10.27773 26944 ft 445 kts 258°
2026-05-06 10:12 47.98899 10.23301 27082 ft 444 kts 251°
2026-05-06 10:13 47.97971 10.18889 27286 ft 445 kts 247°
2026-05-06 10:13 47.96931 10.14542 27556 ft 446 kts 246°
2026-05-06 10:13 47.95837 10.10205 27843 ft 446 kts 245°
2026-05-06 10:13 47.94724 10.05878 28107 ft 447 kts 245°
2026-05-06 10:14 47.93608 10.01549 28371 ft 448 kts 245°
2026-05-06 10:14 47.92494 9.97203 28615 ft 449 kts 245°
2026-05-06 10:14 47.91385 9.92848 28850 ft 450 kts 245°
2026-05-06 10:14 47.90281 9.88497 29173 ft 448 kts 246°
2026-05-06 10:15 47.89183 9.84157 29599 ft 445 kts 246°
2026-05-06 10:15 47.88102 9.79846 30010 ft 443 kts 246°
2026-05-06 10:15 47.87033 9.75555 30322 ft 442 kts 246°
2026-05-06 10:15 47.85959 9.71243 30392 ft 446 kts 245°
2026-05-06 10:16 47.84877 9.66908 30578 ft 447 kts 245°
2026-05-06 10:16 47.83921 9.62494 30870 ft 448 kts 251°
2026-05-06 10:16 47.83253 9.58021 31116 ft 449 kts 253°
2026-05-06 10:16 47.82653 9.53435 31373 ft 449 kts 255°
2026-05-06 10:17 47.82095 9.48880 31704 ft 447 kts 255°
2026-05-06 10:17 47.81553 9.44322 31944 ft 447 kts 255°
2026-05-06 10:17 47.81014 9.39770 32144 ft 447 kts 255°
2026-05-06 10:17 47.80472 9.35222 32366 ft 446 kts 255°
2026-05-06 10:18 47.79926 9.30683 32642 ft 446 kts 255°
2026-05-06 10:18 47.79375 9.26146 32861 ft 445 kts 255°
2026-05-06 10:18 47.78820 9.21619 33121 ft 445 kts 255°
2026-05-06 10:18 47.78264 9.17101 33366 ft 444 kts 255°
2026-05-06 10:19 47.77706 9.12590 33648 ft 443 kts 255°
2026-05-06 10:19 47.77147 9.08085 33893 ft 442 kts 255°
2026-05-06 10:19 47.76588 9.03597 34053 ft 442 kts 255°
2026-05-06 10:19 47.76024 8.99094 34196 ft 443 kts 255°
2026-05-06 10:20 47.75459 8.94582 34361 ft 444 kts 255°
2026-05-06 10:20 47.74891 8.90068 34478 ft 445 kts 255°
2026-05-06 10:20 47.74329 8.85608 34625 ft 445 kts 254°
2026-05-06 10:20 47.73754 8.81066 34680 ft 447 kts 254°
2026-05-06 10:21 47.72594 8.71953 34760 ft 452 kts 254°
2026-05-06 10:21 47.71416 8.62754 34823 ft 454 kts 254°
2026-05-06 10:22 47.70231 8.53544 34827 ft 454 kts 254°
2026-05-06 10:22 47.68619 8.44567 34826 ft 447 kts 244°
2026-05-06 10:23 47.65648 8.36529 34832 ft 445 kts 234°
2026-05-06 10:23 47.62115 8.28931 34829 ft 450 kts 232°
2026-05-06 10:24 47.58470 8.21390 34832 ft 454 kts 232°
2026-05-06 10:24 47.54805 8.13757 34831 ft 456 kts 232°
2026-05-06 10:25 47.51141 8.06071 34836 ft 457 kts 232°
2026-05-06 10:25 47.47484 7.98397 34833 ft 456 kts 232°
2026-05-06 10:26 47.43819 7.90727 34836 ft 457 kts 232°
2026-05-06 10:26 47.40150 7.83076 34823 ft 456 kts 232°
2026-05-06 10:27 47.36473 7.75430 34836 ft 456 kts 232°
2026-05-06 10:27 47.32809 7.67835 34835 ft 456 kts 232°
2026-05-06 10:28 47.29121 7.60248 34830 ft 455 kts 231°
2026-05-06 10:28 47.25216 7.52933 34829 ft 454 kts 229°
2026-05-06 10:29 47.21229 7.45715 34856 ft 454 kts 229°
2026-05-06 10:29 47.17250 7.38443 34854 ft 457 kts 229°
2026-05-06 10:30 47.13312 7.31176 34863 ft 458 kts 229°
2026-05-06 10:30 47.09346 7.23860 34843 ft 458 kts 229°
2026-05-06 10:31 47.05361 7.16531 34855 ft 459 kts 229°
2026-05-06 10:31 47.01380 7.09225 34857 ft 458 kts 229°
2026-05-06 10:32 46.97392 7.01942 34874 ft 458 kts 229°
2026-05-06 10:32 46.93395 6.94660 34893 ft 460 kts 229°
2026-05-06 10:33 46.89369 6.87336 34884 ft 463 kts 229°
2026-05-06 10:33 46.85314 6.79984 34884 ft 465 kts 229°
2026-05-06 10:34 46.81252 6.72643 34880 ft 465 kts 229°
2026-05-06 10:34 46.77178 6.65300 34861 ft 465 kts 229°
2026-05-06 10:35 46.73104 6.57971 34866 ft 464 kts 229°
2026-05-06 10:35 46.68942 6.50794 34859 ft 463 kts 226°
2026-05-06 10:36 46.64648 6.43841 34870 ft 467 kts 226°
2026-05-06 10:36 46.60287 6.36787 34871 ft 469 kts 226°
2026-05-06 10:37 46.55949 6.29713 34881 ft 469 kts 227°
2026-05-06 10:37 46.51611 6.22621 34883 ft 470 kts 227°
2026-05-06 10:38 46.47264 6.15529 34889 ft 470 kts 227°
2026-05-06 10:38 46.42933 6.08484 34903 ft 470 kts 226°
2026-05-06 10:39 46.38573 6.01414 34922 ft 470 kts 227°
2026-05-06 10:39 46.34194 5.94332 34901 ft 473 kts 227°
2026-05-06 10:40 46.29915 5.87072 34923 ft 475 kts 233°
2026-05-06 10:40 46.26110 5.79298 34923 ft 476 kts 234°
2026-05-06 10:41 46.22364 5.71392 34927 ft 476 kts 234°
2026-05-06 10:41 46.18631 5.63504 34935 ft 475 kts 234°
2026-05-06 10:42 46.14889 5.55649 34936 ft 475 kts 234°
2026-05-06 10:42 46.11142 5.47805 34931 ft 476 kts 234°
2026-05-06 10:43 46.07376 5.39963 34923 ft 477 kts 234°
2026-05-06 10:44 46.01726 5.28238 34930 ft 476 kts 234°
2026-05-06 10:44 45.97945 5.20413 34927 ft 475 kts 234°
2026-05-06 10:45 45.94170 5.12622 34947 ft 476 kts 234°
2026-05-06 10:45 45.90372 5.04805 34934 ft 477 kts 234°
2026-05-06 10:46 45.86565 4.96991 34937 ft 478 kts 234°
2026-05-06 10:46 45.82766 4.89216 34935 ft 476 kts 234°
2026-05-06 10:47 45.79575 4.82701 34935 ft 475 kts 234°
2026-05-06 10:47 45.75771 4.74956 34936 ft 475 kts 234°
2026-05-06 10:48 45.71957 4.67211 34927 ft 476 kts 234°
2026-05-06 10:48 45.68319 4.59841 34926 ft 476 kts 234°
2026-05-06 10:49 45.64494 4.52114 34930 ft 476 kts 234°
2026-05-06 10:49 45.60676 4.44422 34935 ft 476 kts 233°
2026-05-06 10:50 45.56837 4.36708 34941 ft 476 kts 233°
2026-05-06 10:50 45.53020 4.29061 34938 ft 476 kts 233°
2026-05-06 10:51 45.49160 4.21348 34935 ft 478 kts 233°
2026-05-06 10:51 45.45285 4.13627 34936 ft 479 kts 233°
2026-05-06 10:52 45.41393 4.05891 34931 ft 480 kts 233°
2026-05-06 10:52 45.37502 3.98182 34924 ft 480 kts 233°
2026-05-06 10:53 45.33206 3.90938 34925 ft 479 kts 228°
2026-05-06 10:53 45.28745 3.83914 34933 ft 479 kts 227°
2026-05-06 10:54 45.24280 3.76962 34932 ft 480 kts 227°
2026-05-06 10:54 45.19749 3.69907 34918 ft 481 kts 227°
2026-05-06 10:55 45.15257 3.62913 34922 ft 481 kts 227°
2026-05-06 10:55 45.10747 3.55905 34915 ft 480 kts 227°
2026-05-06 10:56 45.06245 3.48925 34920 ft 480 kts 227°
2026-05-06 10:56 45.01755 3.41982 34917 ft 479 kts 227°
2026-05-06 10:57 44.97253 3.35037 34919 ft 479 kts 227°
2026-05-06 10:57 44.92747 3.28104 34918 ft 479 kts 227°
2026-05-06 10:58 44.88246 3.21198 34920 ft 478 kts 227°
2026-05-06 10:58 44.83768 3.14343 34924 ft 478 kts 227°
2026-05-06 10:59 44.79243 3.07433 34929 ft 478 kts 227°
2026-05-06 10:59 44.74821 3.00697 34940 ft 479 kts 227°
2026-05-06 11:00 44.70283 2.93802 34939 ft 481 kts 227°
2026-05-06 11:00 44.65732 2.86904 34952 ft 481 kts 227°
2026-05-06 11:01 44.61174 2.80012 34953 ft 481 kts 227°
2026-05-06 11:01 44.56645 2.73180 34949 ft 480 kts 227°
2026-05-06 11:02 44.52091 2.66330 34976 ft 479 kts 227°
2026-05-06 11:02 44.47540 2.59499 34967 ft 480 kts 227°
2026-05-06 11:03 44.42964 2.52647 34962 ft 480 kts 227°
2026-05-06 11:03 44.38396 2.45825 34957 ft 480 kts 228°
2026-05-06 11:04 44.33859 2.39066 34965 ft 478 kts 227°
2026-05-06 11:04 44.29309 2.32304 34957 ft 478 kts 227°
2026-05-06 11:05 44.24750 2.25544 34955 ft 479 kts 228°
2026-05-06 11:05 44.20173 2.18773 34947 ft 480 kts 228°
2026-05-06 11:06 44.15600 2.12026 34959 ft 478 kts 227°
2026-05-06 11:06 44.11026 2.05294 34961 ft 478 kts 227°
2026-05-06 11:07 44.06454 1.98580 34954 ft 478 kts 227°
2026-05-06 11:07 44.01876 1.91874 34956 ft 478 kts 227°
2026-05-06 11:08 43.97300 1.85187 34966 ft 477 kts 227°
2026-05-06 11:08 43.92704 1.78528 34948 ft 477 kts 227°
2026-05-06 11:09 43.88034 1.71973 34948 ft 477 kts 226°
2026-05-06 11:09 43.83348 1.65442 34966 ft 477 kts 226°
2026-05-06 11:10 43.78713 1.58970 34960 ft 475 kts 227°
2026-05-06 11:10 43.74071 1.52485 34970 ft 473 kts 227°
2026-05-06 11:11 43.69432 1.46014 34970 ft 475 kts 226°
2026-05-06 11:11 43.64771 1.39527 34953 ft 476 kts 226°
2026-05-06 11:12 43.60097 1.33041 34962 ft 474 kts 227°
2026-05-06 11:12 43.55453 1.26612 34949 ft 472 kts 227°
2026-05-06 11:13 43.50815 1.20206 34958 ft 472 kts 226°
2026-05-06 11:13 43.46173 1.13805 34960 ft 472 kts 226°
2026-05-06 11:14 43.41516 1.07400 34944 ft 473 kts 227°
2026-05-06 11:14 43.36905 1.01078 34960 ft 470 kts 227°
2026-05-06 11:15 43.32276 0.94743 34963 ft 469 kts 227°
2026-05-06 11:15 43.27639 0.88410 34965 ft 469 kts 227°
2026-05-06 11:16 43.23007 0.82098 34968 ft 469 kts 226°
2026-05-06 11:16 43.18372 0.75798 34976 ft 468 kts 227°
2026-05-06 11:17 43.13744 0.69522 34972 ft 468 kts 227°
2026-05-06 11:17 43.09106 0.63243 34964 ft 469 kts 227°
2026-05-06 11:18 43.04493 0.57015 34962 ft 469 kts 226°
2026-05-06 11:18 42.99850 0.50761 34963 ft 466 kts 227°
2026-05-06 11:19 42.95225 0.44540 34961 ft 466 kts 227°
2026-05-06 11:19 42.90599 0.38334 34966 ft 466 kts 227°
2026-05-06 11:20 42.85964 0.32134 34959 ft 467 kts 227°
2026-05-06 11:20 42.81316 0.25926 34960 ft 468 kts 227°
2026-05-06 11:21 42.76682 0.19755 34954 ft 468 kts 227°
2026-05-06 11:21 42.72019 0.13575 34951 ft 468 kts 226°
2026-05-06 11:22 42.67110 0.07702 34944 ft 470 kts 223°
2026-05-06 11:22 42.62106 0.01997 34950 ft 470 kts 223°
2026-05-06 11:23 42.57116 -0.03748 34952 ft 470 kts 223°
2026-05-06 11:23 42.52154 -0.09525 34947 ft 470 kts 223°
2026-05-06 11:24 42.47194 -0.15305 34943 ft 470 kts 223°
2026-05-06 11:24 42.42222 -0.21089 34947 ft 470 kts 223°
2026-05-06 11:25 42.37305 -0.26795 34944 ft 469 kts 223°
2026-05-06 11:25 42.32347 -0.32534 34955 ft 469 kts 223°
2026-05-06 11:26 42.27389 -0.38263 34956 ft 469 kts 223°
2026-05-06 11:26 42.22422 -0.43987 34957 ft 469 kts 223°
2026-05-06 11:27 42.17456 -0.49697 34963 ft 468 kts 223°
2026-05-06 11:27 42.12502 -0.55382 34967 ft 467 kts 223°
2026-05-06 11:28 42.07555 -0.61046 34969 ft 467 kts 223°
2026-05-06 11:28 42.02601 -0.66708 34978 ft 467 kts 223°
2026-05-06 11:29 41.97656 -0.72347 34967 ft 466 kts 223°
2026-05-06 11:29 41.92702 -0.77983 34993 ft 466 kts 223°
2026-05-06 11:30 41.87776 -0.83577 34993 ft 467 kts 223°
2026-05-06 11:30 41.82839 -0.89173 34995 ft 467 kts 223°
2026-05-06 11:31 41.77856 -0.94806 35017 ft 467 kts 223°
2026-05-06 11:31 41.72892 -1.00407 35022 ft 466 kts 223°
2026-05-06 11:32 41.67923 -1.06001 35017 ft 466 kts 223°
2026-05-06 11:32 41.62964 -1.11573 35015 ft 466 kts 223°
2026-05-06 11:33 41.58002 -1.17139 35013 ft 467 kts 223°
2026-05-06 11:33 41.53018 -1.22716 35011 ft 467 kts 223°
2026-05-06 11:34 41.48036 -1.28279 35002 ft 467 kts 223°
2026-05-06 11:34 41.43882 -1.32908 35002 ft 467 kts 223°
2026-05-06 11:35 41.38892 -1.38460 34999 ft 467 kts 223°
2026-05-06 11:35 41.33896 -1.44007 34998 ft 467 kts 223°
2026-05-06 11:36 41.28903 -1.49537 34998 ft 466 kts 223°
2026-05-06 11:36 41.23911 -1.55055 35000 ft 466 kts 223°
2026-05-06 11:37 41.18926 -1.60557 34994 ft 467 kts 223°
2026-05-06 11:37 41.13917 -1.66072 34992 ft 467 kts 223°
2026-05-06 11:38 41.08905 -1.71578 34991 ft 466 kts 223°
2026-05-06 11:38 41.03940 -1.77022 34988 ft 466 kts 223°
2026-05-06 11:39 40.99021 -1.82594 34993 ft 465 kts 225°
2026-05-06 11:39 40.94215 -1.88318 34986 ft 465 kts 225°
2026-05-06 11:40 40.89420 -1.94014 34979 ft 465 kts 225°
2026-05-06 11:40 40.84586 -1.99693 34993 ft 464 kts 225°
2026-05-06 11:41 40.79765 -2.05322 34994 ft 463 kts 225°
2026-05-06 11:41 40.74955 -2.10924 34975 ft 463 kts 225°
2026-05-06 11:42 40.70159 -2.16512 34995 ft 463 kts 225°
2026-05-06 11:42 40.65308 -2.22135 34973 ft 463 kts 224°
2026-05-06 11:43 40.60465 -2.27717 34970 ft 463 kts 224°
2026-05-06 11:43 40.55601 -2.33323 34990 ft 464 kts 224°
2026-05-06 11:44 40.48282 -2.41746 34991 ft 465 kts 224°
2026-05-06 11:44 40.43391 -2.47361 34982 ft 465 kts 224°
2026-05-06 11:45 40.38566 -2.52916 34976 ft 463 kts 226°
2026-05-06 11:45 40.34226 -2.59122 34979 ft 460 kts 232°
2026-05-06 11:46 40.30148 -2.65492 34982 ft 460 kts 233°
2026-05-06 11:46 40.26066 -2.71953 34979 ft 461 kts 233°
2026-05-06 11:47 40.21941 -2.78444 34951 ft 462 kts 232°
2026-05-06 11:47 40.17861 -2.84828 34979 ft 460 kts 232°
2026-05-06 11:48 40.13749 -2.91247 34979 ft 460 kts 232°
2026-05-06 11:48 40.09596 -2.97717 34980 ft 459 kts 232°
2026-05-06 11:49 40.05483 -3.04112 34977 ft 459 kts 232°
2026-05-06 11:49 40.01366 -3.10502 34980 ft 462 kts 232°
2026-05-06 11:50 39.97249 -3.16877 34962 ft 461 kts 232°
2026-05-06 11:50 39.93109 -3.23274 34973 ft 460 kts 232°
2026-05-06 11:51 39.89015 -3.29586 34964 ft 459 kts 232°
2026-05-06 11:51 39.84897 -3.35925 34963 ft 460 kts 232°
2026-05-06 11:52 39.80775 -3.42256 34966 ft 460 kts 232°
2026-05-06 11:52 39.76626 -3.48596 34960 ft 461 kts 231°
2026-05-06 11:53 39.72144 -3.54562 34956 ft 462 kts 226°
2026-05-06 11:53 39.67511 -3.60391 34952 ft 461 kts 227°
2026-05-06 11:54 39.62936 -3.66303 34949 ft 461 kts 227°
2026-05-06 11:54 39.58424 -3.72214 34943 ft 461 kts 228°
2026-05-06 11:55 39.53942 -3.78096 34944 ft 461 kts 227°
2026-05-06 11:55 39.49426 -3.83999 34944 ft 460 kts 227°
2026-05-06 11:56 39.44974 -3.89799 34944 ft 460 kts 227°
2026-05-06 11:56 39.40449 -3.95683 34939 ft 460 kts 227°
2026-05-06 11:57 39.35937 -4.01541 34937 ft 460 kts 227°
2026-05-06 11:57 39.31441 -4.07367 34936 ft 460 kts 227°
2026-05-06 11:58 39.26879 -4.13268 34932 ft 459 kts 227°
2026-05-06 11:58 39.22377 -4.19078 34938 ft 457 kts 227°
2026-05-06 11:59 39.17881 -4.24871 34939 ft 456 kts 227°
2026-05-06 11:59 39.13435 -4.30589 34939 ft 456 kts 227°
2026-05-06 12:00 39.08943 -4.36357 34942 ft 456 kts 227°
2026-05-06 12:00 39.04419 -4.42152 34944 ft 456 kts 227°
2026-05-06 12:01 39.00000 -4.47800 34939 ft 452 kts 227°
2026-05-06 12:01 38.95537 -4.53494 34941 ft 450 kts 227°
2026-05-06 12:02 38.91098 -4.59160 34940 ft 450 kts 227°
2026-05-06 12:02 38.86628 -4.64840 34938 ft 453 kts 227°
2026-05-06 12:03 38.82136 -4.70531 34938 ft 454 kts 227°
2026-05-06 12:03 38.77605 -4.76265 34939 ft 452 kts 226°
2026-05-06 12:04 38.73140 -4.81906 34931 ft 450 kts 226°
2026-05-06 12:04 38.68725 -4.87474 34946 ft 450 kts 226°
2026-05-06 12:05 38.64269 -4.93084 34932 ft 450 kts 226°
2026-05-06 12:05 38.59829 -4.98665 34937 ft 452 kts 226°
2026-05-06 12:06 38.55328 -5.04313 34938 ft 454 kts 226°
2026-05-06 12:06 38.50578 -5.09706 34936 ft 454 kts 218°
2026-05-06 12:07 38.45077 -5.13592 34935 ft 456 kts 210°
2026-05-06 12:07 38.39290 -5.17169 34935 ft 456 kts 210°
2026-05-06 12:08 38.33570 -5.20691 34936 ft 457 kts 210°
2026-05-06 12:08 38.27854 -5.24224 34935 ft 457 kts 210°
2026-05-06 12:09 38.22208 -5.27715 34936 ft 457 kts 210°
2026-05-06 12:09 38.16493 -5.31246 34936 ft 457 kts 210°
2026-05-06 12:10 38.10786 -5.34767 34949 ft 458 kts 210°
2026-05-06 12:10 38.05004 -5.38325 34932 ft 460 kts 210°
2026-05-06 12:11 37.99240 -5.41859 34935 ft 458 kts 210°
2026-05-06 12:11 37.93485 -5.45385 34936 ft 457 kts 210°
2026-05-06 12:12 37.87748 -5.48897 34932 ft 457 kts 209°
2026-05-06 12:12 37.82015 -5.52399 34910 ft 457 kts 210°
2026-05-06 12:13 37.76377 -5.55837 34930 ft 456 kts 210°
2026-05-06 12:13 37.70681 -5.59304 34933 ft 455 kts 210°
2026-05-06 12:14 37.64976 -5.62772 34937 ft 455 kts 210°
2026-05-06 12:14 37.59247 -5.66248 34937 ft 455 kts 210°
2026-05-06 12:15 37.53556 -5.69695 34937 ft 454 kts 210°
2026-05-06 12:15 37.47796 -5.73179 34940 ft 454 kts 209°
2026-05-06 12:16 37.42312 -5.76971 34939 ft 451 kts 218°
2026-05-06 12:16 37.37418 -5.81838 34938 ft 449 kts 222°
2026-05-06 12:17 37.32664 -5.86909 34920 ft 449 kts 223°
2026-05-06 12:17 37.27923 -5.91996 34939 ft 448 kts 223°
2026-05-06 12:18 37.23197 -5.97029 34936 ft 448 kts 222°
2026-05-06 12:18 37.18433 -6.02074 34936 ft 448 kts 222°
2026-05-06 12:19 37.13629 -6.07151 34936 ft 448 kts 222°
2026-05-06 12:19 37.08848 -6.12197 34942 ft 449 kts 222°
2026-05-06 12:20 37.04055 -6.17247 34929 ft 449 kts 222°
2026-05-06 12:20 36.99271 -6.22278 34944 ft 448 kts 222°
2026-05-06 12:21 36.94526 -6.27261 34948 ft 448 kts 222°
2026-05-06 12:21 36.89749 -6.32267 34959 ft 448 kts 222°
2026-05-06 12:22 36.84957 -6.37282 34966 ft 448 kts 222°
2026-05-06 12:22 36.80179 -6.42274 34960 ft 448 kts 222°
2026-05-06 12:23 36.76207 -6.46417 34963 ft 447 kts 222°
2026-05-06 12:23 36.71417 -6.51407 34966 ft 449 kts 222°
2026-05-06 12:24 36.66618 -6.56397 34962 ft 449 kts 222°
2026-05-06 12:24 36.61813 -6.61383 34965 ft 449 kts 222°
2026-05-06 12:25 36.57005 -6.66366 34964 ft 449 kts 221°
2026-05-06 12:25 36.52201 -6.71335 34971 ft 448 kts 221°
2026-05-06 12:26 36.47404 -6.76297 34971 ft 448 kts 221°
2026-05-06 12:26 36.42609 -6.81237 34973 ft 448 kts 221°
2026-05-06 12:27 36.37804 -6.86177 34985 ft 449 kts 221°
2026-05-06 12:27 36.33007 -6.91103 34978 ft 451 kts 221°
2026-05-06 12:28 36.28171 -6.96063 34965 ft 450 kts 221°
2026-05-06 12:28 36.23559 -7.00785 34986 ft 449 kts 221°
2026-05-06 12:29 36.18769 -7.05682 34988 ft 448 kts 221°
2026-05-06 12:29 36.13955 -7.10596 34988 ft 448 kts 221°
2026-05-06 12:30 36.09141 -7.15500 34990 ft 448 kts 221°
2026-05-06 12:30 36.04326 -7.20399 34989 ft 448 kts 221°
2026-05-06 12:31 35.99509 -7.25292 34991 ft 449 kts 221°
2026-05-06 12:31 35.94675 -7.30193 34991 ft 449 kts 221°
2026-05-06 12:32 35.89854 -7.35073 34990 ft 449 kts 221°
2026-05-06 12:32 35.85020 -7.39959 34991 ft 449 kts 221°
2026-05-06 12:33 35.80179 -7.44840 34994 ft 449 kts 221°
2026-05-06 12:33 35.75323 -7.49681 34994 ft 449 kts 221°
2026-05-06 12:34 35.70506 -7.54470 34993 ft 449 kts 221°
2026-05-06 12:34 35.65655 -7.59293 34993 ft 449 kts 221°
2026-05-06 12:35 35.60812 -7.64106 35002 ft 452 kts 221°
2026-05-06 12:35 35.55873 -7.69007 35001 ft 453 kts 221°
2026-05-06 12:36 35.50999 -7.73833 35001 ft 454 kts 221°
2026-05-06 12:36 35.46065 -7.78711 35001 ft 452 kts 221°
2026-05-06 12:37 35.41187 -7.83527 35001 ft 451 kts 221°
2026-05-06 12:37 35.36264 -7.88440 35002 ft 451 kts 221°
2026-05-06 12:38 35.31433 -7.93278 35001 ft 451 kts 221°
2026-05-06 12:38 35.26573 -7.98132 35002 ft 451 kts 221°
2026-05-06 12:39 35.21763 -8.02923 34995 ft 450 kts 221°
2026-05-06 12:39 35.16924 -8.07734 35007 ft 449 kts 221°
2026-05-06 12:40 35.12072 -8.12551 35006 ft 449 kts 221°
2026-05-06 12:40 35.07223 -8.17357 35004 ft 449 kts 221°
2026-05-06 12:41 35.02316 -8.22214 35006 ft 449 kts 221°
2026-05-06 12:41 34.97457 -8.27015 35007 ft 449 kts 221°
2026-05-06 12:42 34.92615 -8.31792 35006 ft 448 kts 221°
2026-05-06 12:42 34.87770 -8.36564 35007 ft 448 kts 221°
2026-05-06 12:43 34.82972 -8.41283 35008 ft 449 kts 221°
2026-05-06 12:43 34.78076 -8.46091 35006 ft 449 kts 221°
2026-05-06 12:44 34.73264 -8.50808 35013 ft 449 kts 221°
2026-05-06 12:44 34.68411 -8.55558 34999 ft 449 kts 221°
2026-05-06 12:45 34.63526 -8.60333 35013 ft 448 kts 221°
2026-05-06 12:46 34.56234 -8.67446 35015 ft 448 kts 221°
2026-05-06 12:46 34.51349 -8.72201 35017 ft 448 kts 221°
2026-05-06 12:47 34.46467 -8.76948 35013 ft 451 kts 221°
2026-05-06 12:47 34.41566 -8.81705 34994 ft 451 kts 221°
2026-05-06 12:48 34.36720 -8.86360 35002 ft 450 kts 220°
2026-05-06 12:48 34.31821 -8.91054 35021 ft 450 kts 220°
2026-05-06 12:49 34.26916 -8.95754 35026 ft 450 kts 220°
2026-05-06 12:49 34.22030 -9.00433 35005 ft 450 kts 220°
2026-05-06 12:50 34.17093 -9.05153 35024 ft 450 kts 220°
2026-05-06 12:50 34.12151 -9.09871 35017 ft 449 kts 221°
2026-05-06 12:51 34.07248 -9.14545 35021 ft 451 kts 220°
2026-05-06 12:51 34.02317 -9.19238 35021 ft 452 kts 220°
2026-05-06 12:52 33.97373 -9.23936 35019 ft 452 kts 220°
2026-05-06 12:52 33.92467 -9.28590 35021 ft 452 kts 220°
2026-05-06 12:53 33.87527 -9.33271 35021 ft 452 kts 220°
2026-05-06 12:53 33.82608 -9.37924 35013 ft 450 kts 220°
2026-05-06 12:54 33.77717 -9.42543 35019 ft 449 kts 220°
2026-05-06 12:54 33.72778 -9.47201 35021 ft 450 kts 221°
2026-05-06 12:55 33.67827 -9.51866 35023 ft 453 kts 221°
2026-05-06 12:55 33.62885 -9.56513 35019 ft 454 kts 221°
2026-05-06 12:56 33.57841 -9.61247 34996 ft 454 kts 220°
2026-05-06 12:56 33.52861 -9.65915 35018 ft 453 kts 220°
2026-05-06 12:57 33.47902 -9.70556 35019 ft 452 kts 220°
2026-05-06 12:57 33.43008 -9.75131 35020 ft 452 kts 220°
2026-05-06 12:58 33.38070 -9.79740 35019 ft 452 kts 220°
2026-05-06 12:58 33.33088 -9.84382 35022 ft 453 kts 221°
2026-05-06 12:59 33.28092 -9.89032 35018 ft 456 kts 220°
2026-05-06 12:59 33.23090 -9.93680 35020 ft 457 kts 220°
2026-05-06 13:00 33.18065 -9.98340 35024 ft 457 kts 220°
2026-05-06 13:00 33.13041 -10.02993 35027 ft 457 kts 220°
2026-05-06 13:01 33.07975 -10.07679 35021 ft 456 kts 220°
2026-05-06 13:01 33.02954 -10.12317 35018 ft 457 kts 220°
2026-05-06 13:02 32.97953 -10.16934 35031 ft 458 kts 220°
2026-05-06 13:02 32.92950 -10.21532 35029 ft 459 kts 220°
2026-05-06 13:03 32.87866 -10.26197 35019 ft 463 kts 220°
2026-05-06 13:03 32.82747 -10.30887 35029 ft 464 kts 220°
2026-05-06 13:04 32.77661 -10.35543 35042 ft 465 kts 220°
2026-05-06 13:04 32.72528 -10.40235 35055 ft 465 kts 220°
2026-05-06 13:05 32.67387 -10.44928 35048 ft 463 kts 220°
2026-05-06 13:05 32.62244 -10.49615 35064 ft 463 kts 220°
2026-05-06 13:06 32.57133 -10.54266 35081 ft 463 kts 220°
2026-05-06 13:06 32.52023 -10.58909 35099 ft 464 kts 220°
2026-05-06 13:07 32.46931 -10.63531 35084 ft 468 kts 220°
2026-05-06 13:07 32.41757 -10.68220 35063 ft 468 kts 220°
2026-05-06 13:08 32.36669 -10.72821 35079 ft 466 kts 220°
2026-05-06 13:08 32.31484 -10.77505 35089 ft 465 kts 220°
2026-05-06 13:09 32.26339 -10.82146 35115 ft 465 kts 220°
2026-05-06 13:09 32.21190 -10.86784 35121 ft 465 kts 220°
2026-05-06 13:10 32.16931 -10.90615 35133 ft 465 kts 220°
2026-05-06 13:10 32.11741 -10.95278 35114 ft 463 kts 219°
2026-05-06 13:11 32.06583 -10.99905 35109 ft 465 kts 219°
2026-05-06 13:11 32.01424 -11.04526 35118 ft 466 kts 219°
2026-05-06 13:12 31.96341 -11.09073 35126 ft 467 kts 219°
2026-05-06 13:12 31.91167 -11.13693 35127 ft 467 kts 219°
2026-05-06 13:13 31.85928 -11.18366 35133 ft 467 kts 219°
2026-05-06 13:13 31.80817 -11.22916 35129 ft 462 kts 219°
2026-05-06 13:14 31.75706 -11.27460 35138 ft 460 kts 219°
2026-05-06 13:14 31.70582 -11.32038 35161 ft 460 kts 219°
2026-05-06 13:15 31.65445 -11.36618 35130 ft 465 kts 219°
2026-05-06 13:15 31.60285 -11.41207 35130 ft 466 kts 219°
2026-05-06 13:16 31.55161 -11.45759 35128 ft 466 kts 219°
2026-05-06 13:16 31.50036 -11.50305 35152 ft 461 kts 219°
2026-05-06 13:17 31.44934 -11.54826 35164 ft 460 kts 219°
2026-05-06 13:17 31.39807 -11.59364 35178 ft 459 kts 219°
2026-05-06 13:18 31.34706 -11.63873 35189 ft 459 kts 219°
2026-05-06 13:18 31.29616 -11.68365 35197 ft 459 kts 219°
2026-05-06 13:19 31.24555 -11.72825 35174 ft 458 kts 219°
2026-05-06 13:19 31.19420 -11.77342 35199 ft 455 kts 219°
2026-05-06 13:20 31.14374 -11.81778 35212 ft 454 kts 219°
2026-05-06 13:20 31.09327 -11.86208 35213 ft 453 kts 219°
2026-05-06 13:21 31.04279 -11.90632 35213 ft 453 kts 219°
2026-05-06 13:21 30.99237 -11.95046 35213 ft 454 kts 219°
2026-05-06 13:22 30.94194 -11.99452 35389 ft 445 kts 219°
2026-05-06 13:22 30.91741 -12.01590 35769 ft 438 kts 219°
2026-05-06 13:22 30.89310 -12.03710 35807 ft 438 kts 219°
2026-05-06 13:23 30.84386 -12.08010 35654 ft 446 kts 219°
2026-05-06 13:23 30.79408 -12.12347 35675 ft 448 kts 219°
2026-05-06 13:24 30.74412 -12.16689 35680 ft 449 kts 219°
2026-05-06 13:24 30.69410 -12.21031 35681 ft 449 kts 219°
2026-05-06 13:25 30.64444 -12.25337 35792 ft 443 kts 219°
2026-05-06 13:25 30.62000 -12.27450 36200 ft 434 kts 219°
2026-05-06 13:25 30.59581 -12.29543 36271 ft 434 kts 219°
2026-05-06 13:26 30.54732 -12.33740 36265 ft 435 kts 219°
2026-05-06 13:26 30.49877 -12.37938 36267 ft 435 kts 219°
2026-05-06 13:27 30.45005 -12.42138 36138 ft 440 kts 219°
2026-05-06 13:27 30.40097 -12.46349 36020 ft 445 kts 219°
2026-05-06 13:28 30.35107 -12.50623 36004 ft 445 kts 219°
2026-05-06 13:28 30.32645 -12.52728 36367 ft 433 kts 219°
2026-05-06 13:28 30.30242 -12.54782 36517 ft 431 kts 219°
2026-05-06 13:29 30.25408 -12.58920 36472 ft 433 kts 219°
2026-05-06 13:29 30.20569 -12.63058 36478 ft 433 kts 219°
2026-05-06 13:30 30.15749 -12.67172 36477 ft 433 kts 219°
2026-05-06 13:30 30.10894 -12.71310 36477 ft 433 kts 219°
2026-05-06 13:31 30.06066 -12.75438 36476 ft 433 kts 219°
2026-05-06 13:31 30.01178 -12.79617 36292 ft 440 kts 219°
2026-05-06 13:32 29.96233 -12.83837 36260 ft 443 kts 219°
2026-05-06 13:32 29.91312 -12.88030 36261 ft 443 kts 219°
2026-05-06 13:33 29.86353 -12.92249 36264 ft 444 kts 219°
2026-05-06 13:33 29.81387 -12.96470 36264 ft 444 kts 219°
2026-05-06 13:34 29.76408 -13.00698 36261 ft 444 kts 219°
2026-05-06 13:34 29.71495 -13.04860 36617 ft 432 kts 219°
2026-05-06 13:35 29.66633 -13.08977 36646 ft 432 kts 219°
2026-05-06 13:35 29.61777 -13.13088 36644 ft 432 kts 219°
2026-05-06 13:35 29.59343 -13.15146 36503 ft 438 kts 219°
2026-05-06 13:36 29.56882 -13.17227 36425 ft 441 kts 219°
2026-05-06 13:36 29.51946 -13.21392 36399 ft 442 kts 219°
2026-05-06 13:37 29.47002 -13.25556 36397 ft 443 kts 219°
2026-05-06 13:37 29.42030 -13.29739 36588 ft 435 kts 219°
2026-05-06 13:37 29.39624 -13.31760 36787 ft 431 kts 219°
2026-05-06 13:38 29.37218 -13.33781 36763 ft 432 kts 219°
2026-05-06 13:38 29.32334 -13.37885 36751 ft 432 kts 219°
2026-05-06 13:39 29.27508 -13.41934 36753 ft 432 kts 219°
2026-05-06 13:39 29.22638 -13.46014 36751 ft 432 kts 219°
2026-05-06 13:40 29.17769 -13.50086 36755 ft 434 kts 219°
2026-05-06 13:40 29.15301 -13.52136 36584 ft 440 kts 217°
2026-05-06 13:40 29.12774 -13.54053 36516 ft 442 kts 215°
2026-05-06 13:40 29.10170 -13.55879 36752 ft 435 kts 214°
2026-05-06 13:41 29.07615 -13.57628 36854 ft 434 kts 214°
2026-05-06 13:41 29.02410 -13.61224 36822 ft 435 kts 214°
2026-05-06 13:42 28.97259 -13.64859 36823 ft 435 kts 215°
2026-05-06 13:42 28.92099 -13.68532 36825 ft 436 kts 215°
2026-05-06 13:43 28.86965 -13.72187 36821 ft 435 kts 215°
2026-05-06 13:43 28.81823 -13.75840 36803 ft 435 kts 215°
2026-05-06 13:44 28.76688 -13.79482 36872 ft 432 kts 215°
2026-05-06 13:44 28.71570 -13.83107 36878 ft 432 kts 215°
2026-05-06 13:45 28.66512 -13.86687 36824 ft 435 kts 215°
2026-05-06 13:45 28.61327 -13.90352 36635 ft 439 kts 214°
2026-05-06 13:45 28.58720 -13.92191 36625 ft 439 kts 214°
2026-05-06 13:46 28.53537 -13.95848 36625 ft 439 kts 214°
2026-05-06 13:46 28.48363 -13.99491 36698 ft 435 kts 214°
2026-05-06 13:47 28.43212 -14.03117 36700 ft 435 kts 214°
2026-05-06 13:47 28.38051 -14.06747 36624 ft 436 kts 214°
2026-05-06 13:48 28.32898 -14.10368 36622 ft 436 kts 214°
2026-05-06 13:48 28.27721 -14.13997 36622 ft 435 kts 214°
2026-05-06 13:49 28.22565 -14.17608 36606 ft 436 kts 214°
2026-05-06 13:49 28.17406 -14.21217 36606 ft 435 kts 214°
2026-05-06 13:50 28.12287 -14.24796 36504 ft 438 kts 214°
2026-05-06 13:50 28.07111 -14.28410 36497 ft 438 kts 214°
2026-05-06 13:51 28.01915 -14.32033 36500 ft 438 kts 214°
2026-05-06 13:51 27.96738 -14.35639 36498 ft 438 kts 214°
2026-05-06 13:52 27.91537 -14.39257 36502 ft 438 kts 214°
2026-05-06 13:52 27.86353 -14.42860 36501 ft 436 kts 214°
2026-05-06 13:53 27.81217 -14.46425 36505 ft 436 kts 214°
2026-05-06 13:53 27.76020 -14.50029 36505 ft 436 kts 214°
2026-05-06 13:54 27.70849 -14.53610 36505 ft 436 kts 214°
2026-05-06 13:54 27.65676 -14.57189 36507 ft 436 kts 214°
2026-05-06 13:55 27.63078 -14.58985 36406 ft 440 kts 214°
2026-05-06 13:55 27.60463 -14.60794 36326 ft 441 kts 214°